Terminal Aerodrome Forecast
Issued by NWS

Current Version | Previous Version | Graphics & Text | Print | Product List | Glossary On
Versions: 1 2 3 4 5 6 7 8 9 10 11 12 13 14 15 16 17 18 19
623
FTUS41 KILN 151729
TAFLCK
TAF
KLCK 151729Z 1518/1618 06005KT P6SM FEW008 BKN040
     FM160000 05003KT P6SM SCT012 OVC050
     FM161200 09004KT P6SM OVC035
      AMD NOT SKED=

USA.gov is the U.S. government's official web portal to all federal, state and local government web resources and services.